Regional Weather Roundup
Issued by NWS

Home | Current Version | Previous Version | Graphics & Text | Print | Product List | Glossary Off
Versions: 1 2 3 4 5 6 7 8 9 10 11 12 13 14 15 16 17 18 19 20 21 22 23 24 25 26 27 28 29 30 31 32 33 34 35 36 37 38 39 40 41 42 43 44 45 46 47 48 49 50

000
ASUS43 KMKX 210800
RWRWI

WISCONSIN REGIONAL WEATHER ROUNDUP
NATIONAL WEATHER SERVICE MILWAUKEE/SULLIVAN WI
300 AM CDT FRI JUL 21 2017

NOTE: "FAIR" INDICATES FEW OR NO CLOUDS BELOW 12,000 FEET WITH NO
SIGNIFICANT WEATHER AND/OR OBSTRUCTIONS TO VISIBILITY.

WIZ001-002-006>008-014>016-023>028-210900-
NORTHWEST WISCONSIN

CITY           SKY/WX    TMP DP  RH WIND       PRES   REMARKS
SUPERIOR ARPT  NOT AVBL
ASHLAND        NOT AVBL
HAYWARD        CLOUDY    58  57  97 N3        30.00R
SIREN          PTCLDY    64  63  95 CALM      29.97F
CUMBERLAND     FOG       59  59 100 CALM      29.99F VSB 1/4
RICE LAKE      FOG       61  60  97 S3        30.01R VSB 3/4
CHETEK         PTCLDY    62  62 100 MISG      29.99S FOG
LADYSMITH      CLEAR     62  61  97 N5        30.02S FOG
EAU CLAIRE     PTCLDY    63  62  97 CALM      29.98R
MENOMONIE      CLEAR     64  63  99 SW5       30.00R FOG
NEW RICHMOND     N/A     66  66 100 SW9       30.00R
OSCEOLA        PTCLDY    64  64 100 SW9       30.01R
$$

WIZ003>005-009-010-017-018-210900-
NORTH CENTRAL WISCONSIN

CITY           SKY/WX    TMP DP  RH WIND       PRES   REMARKS
MANITOWISH WTR FOG       57  57 100 CALM      30.00S VSB 1/2
ARBOR VITAE    CLEAR     62  60  95 CALM      30.01R FOG
WOODRUFF       CLEAR     62  60  95 CALM      30.01R FOG
RHINELANDER    CLEAR     62  62 100 NW3       30.03R
EAGLE RIVER    FOG       56  56 100 CALM      30.01R VSB 1/2
LAND O LAKES   CLEAR     55  55 100 CALM      30.02S FOG
PHILLIPS       PTCLDY    58  58 100 CALM      30.01S
TOMAHAWK         N/A     55  53  96 CALM      30.02S
MEDFORD        CLEAR     62  62  99 CALM      30.01S FOG
MERRILL        FOG       58  58 100 CALM      30.00F VSB 1/2
$$

WIZ029-030-035-036-043>047-210900-
CENTRAL WISCONSIN

CITY           SKY/WX    TMP DP  RH WIND       PRES   REMARKS
WAUSAU         CLEAR     67  64  90 SW5       29.99S
MOSINEE        CLEAR     61  61 100 S5        30.01S
MARSHFIELD     FOG       62  61  96 CALM      30.00S VSB 3/4
STEVENS POINT  PTCLDY    59  59 100 CALM      30.01S
WAUPACA        CLEAR     66  65  97 CALM      30.00R
WAUTOMA        CLOUDY    63  62  97 CALM      29.99F
WISC RAPIDS    FOG       62  62 100 CALM      30.01S VSB 3/4
CAMP DOUGLAS   FOG       63  63 100 CALM      30.00S VSB 1
$$

WIZ011>013-019>022-031-037>040-048>050-210900-
NORTHEAST WISCONSIN

CITY           SKY/WX    TMP DP  RH WIND       PRES   REMARKS
ANTIGO         CLEAR     58  58  99 CALM      30.02S
SHAWANO        CLEAR     64  62  92 CALM      29.98S
OCONTO         CLEAR     60  60  97 CALM      29.96R
STURGEON BAY     N/A     70  61  73 E3        29.97R
GREEN BAY      CLEAR     64  64 100 SW3       29.97F
MANITOWOC      NOT AVBL
APPLETON       CLEAR     66  64  94 W9        29.97S
CLINTONVILLE   CLEAR     64  63  94 CALM      29.99S FOG
OSHKOSH        CLOUDY    68  65  90 W5        29.97S
$$

WIZ032>034-041-042-053>061-210900-
SOUTHWEST WISCONSIN

CITY           SKY/WX    TMP DP  RH WIND       PRES   REMARKS
LA CROSSE      CLOUDY    72  70  93 CALM      29.97F
SPARTA         CLOUDY    60  60 100 CALM      30.01F
VIROQUA        CLOUDY    70  68  94 SE6       30.01F
BOSCOBEL       FOG       70  69  97 CALM      29.97F VSB 1/4
PRAIRIE DU CHI CLOUDY    69  68  96 CALM      29.98S
PLATTEVILLE    CLOUDY    73  73 100 CALM      30.00S
$$

WIZ056-057-062-063-064-067-068-210900-
SOUTH CENTRAL WISCONSIN

CITY           SKY/WX    TMP DP  RH WIND       PRES   REMARKS
REEDSBURG      CLOUDY    65  65 100 CALM      29.99F
BARABOO/DELLS  CLOUDY    66  65  95 CALM      30.00S FOG
LONE ROCK      FOG       67  67 100 MISG      29.99R VSB 1/4
MINERAL POINT  CLOUDY    70  70 100 CALM      30.01S
MADISON        CLOUDY    67  67 100 CALM      29.99R FOG
MIDDLETON      CLOUDY    66  66 100 CALM      30.00S
WATERTOWN      CLOUDY    67  67 100 CALM      29.99F
MONROE         CLOUDY    72  70  94 NE8       29.98F
JANESVILLE     CLOUDY    72  72 100 CALM      29.98F
$$

WIZ051-052-058>065-066-070>072-210900-
SOUTHEAST WISCONSIN

CITY           SKY/WX    TMP DP  RH WIND       PRES   REMARKS
MILWAUKEE      MOCLDY    75  70  84 W3        29.97F
WAUKESHA       CLOUDY    68  68 100 CALM      30.00F
MILWAUKEE/TIMM CLOUDY    70  66  88 CALM      29.98F
RACINE         CLOUDY    71  70  96 W6        29.99F
KENOSHA        CLOUDY    70  68  93 W3        29.98F
FOND DU LAC    CLOUDY    68  64  87 CALM      29.98F
SHEBOYGAN      CLEAR     65  65 100 CALM      29.96F
WEST BEND      CLOUDY    64  64 100 CALM      29.99S FOG
JUNEAU         PTCLDY    66  65  97 CALM      30.00S FOG
$$

LSZ147-162-210900-
LAKE SUPERIOR

STATION/POSITION TIME  TEMP    WIND        PRES    WAVE
                       AIR SEA DIR/SP/G            HT/PER
                 (UTC) (F)     (DEG/KT/KT) (MB)    (FT/S)
W MID LAKE BUOY  0650   57 47  250/  4/  6 1013.8F   0
DEVILS ISLAND    0700   69     230/  7/  7 1014.0F
SAXON HARBOR     0730   64     200/  4/  5 1013.9R
$$

LMZ867-665-643>646-210900-
LAKE MICHIGAN

STATION/POSITION TIME  TEMP    WIND        PRES    WAVE
                       AIR SEA DIR/SP/G            HT/PER
                 (UTC) (F)     (DEG/KT/KT) (MB)    (FT/S)
CHAMBERS ISLAND  0740   66      CALM  /  1 1013.9S
S GREEN BAY BUOY 0730   73 73   30/  6/  8 1014.8R
N MID LAKE BUOY  0650   66 65  130/  2/  4 1015.0R   1/ 5
NORTHPORT PIER   0740   67     150/  5/  5 1014.2S
KEWAUNEE LAKESHO 0730   68     320/  3/  4 1014.1R
SHEBOYGAN LAKESH 0700   72     250/  5/  5 1014.2R
PORT WASHINGTON  0740   73     270/  5/  6 1015.6S
ATWATER BUOY     0609   70 68  190/  4/  6 1015.2R
MILWAUKEE LAKESH 0730   75     290/  3/  5   N/A
S MID LAKE BUOY  0650   70 70  340/  4/  4 1014.6F   0
KENOSHA   LAKESH 0700   74     260/  4/  5 1014.9
$$

TC  - TEMPERATURE IN CELSIUS
VSB - VISIBILITY IN STATUTE MILES
WCI - WIND CHILL INDEX
HX  - HEAT INDEX




USA.gov is the U.S. government's official web portal to all federal, state and local government web resources and services.